This is the latest recevied weather packets stored in our database for station/object DH9NFM-12. If no packets are shown the sender has not sent any weather packets the latest 10 day(s).
| Time | Temp. | Humidity | Pressure | Rain* | Wind** | Luminosity | Snow |
|---|---|---|---|---|---|---|---|
| 1777212277 | 12.22° C | 50% | 1021.1 hPa | 0 mm | - | - | - |
| 1777211652 | 12.22° C | 50% | 1021 hPa | 0 mm | - | - | - |
| 1777211027 | 12.22° C | 49% | 1021.1 hPa | 0 mm | - | - | - |
| 1777210403 | 12.78° C | 49% | 1021.1 hPa | 0 mm | - | - | - |
| 1777209778 | 12.78° C | 48% | 1021.2 hPa | 0 mm | - | - | - |
| 1777209154 | 12.22° C | 45% | 1021.1 hPa | 0 mm | - | - | - |
| 1777208529 | 12.22° C | 46% | 1021.2 hPa | 0 mm | - | - | - |
| 1777207904 | 12.78° C | 51% | 1021.2 hPa | 0 mm | - | - | - |
| 1777207279 | 12.22° C | 52% | 1021.3 hPa | 0 mm | - | - | - |
| 1777206655 | 12.78° C | 52% | 1021.3 hPa | 0 mm | - | - | - |
| 1777206030 | 12.78° C | 51% | 1021.3 hPa | 0 mm | - | - | - |
| 1777205405 | 11.67° C | 54% | 1021.5 hPa | 0 mm | - | - | - |
| 1777204781 | 12.22° C | 56% | 1021.4 hPa | 0 mm | - | - | - |
| 1777204156 | 11.67° C | 56% | 1021.3 hPa | 0 mm | - | - | - |
| 1777203532 | 12.22° C | 53% | 1021.4 hPa | 0 mm | - | - | - |
| 1777202907 | 12.22° C | 55% | 1021.4 hPa | 0 mm | - | - | - |
| 1777202282 | 11.11° C | 57% | 1021.4 hPa | 0 mm | - | - | - |
| 1777201658 | 10.56° C | 59% | 1021.5 hPa | 0 mm | - | - | - |
| 1777201033 | 10° C | 60% | 1021.5 hPa | 0 mm | - | - | - |
| 1777200408 | 10° C | 58% | 1021.5 hPa | 0 mm | - | - | - |
| 1777199784 | 10.56° C | 59% | 1021.6 hPa | 0 mm | - | - | - |
| 1777199159 | 9.44° C | 62% | 1021.5 hPa | 0 mm | - | - | - |
| 1777198534 | 9.44° C | 62% | 1021.4 hPa | 0 mm | - | - | - |
| 1777197910 | 10° C | 63% | 1021.4 hPa | 0 mm | - | - | - |
| 1777197285 | 10.56° C | 61% | 1021.5 hPa | 0 mm | - | - | - |
* Rain latest hour (hover to see other rain measurements)
** Current wind speed in m/s (hover to see current wind gust speed)